| time (UTC) | temp F | wind direction | speed MPH | gust MPH | rain 1hr in | rain 24hr in | rain mn in | humidity % | barometer mb |
| 20260905081519 | 75 | 339 | 0.0 | 0.0 | 0.00 | 0.02 | 0.00 | 97 | 1013.0 |
| 20260905080022 | 75 | 339 | 0.0 | 0.0 | 0.00 | 0.02 | 0.00 | 97 | 1013.0 |
| 20260905074519 | 75 | 339 | 0.0 | 0.0 | 0.00 | 0.02 | 0.00 | 97 | 1013.1 |
| 20260905073014 | 75 | 339 | 0.0 | 0.0 | 0.00 | 0.02 | 0.00 | 97 | 1013.1 |
| 20260905071558 | 75 | 339 | 0.0 | 0.0 | 0.00 | 0.02 | 0.00 | 97 | 1013.2 |
| 20260905070056 | 75 | 339 | 0.0 | 0.0 | 0.00 | 0.02 | 0.00 | 97 | 1013.2 |
| 20260905064544 | 76 | 339 | 0.0 | 0.0 | 0.00 | 0.02 | 0.00 | 97 | 1013.2 |
| 20260905063043 | 76 | 339 | 0.0 | 0.0 | 0.00 | 0.02 | 0.00 | 97 | 1013.1 |
| 20260905061541 | 76 | 339 | 0.0 | 0.0 | 0.00 | 0.02 | 0.00 | 97 | 1013.2 |
| 20260905060039 | 76 | 339 | 0.0 | 0.0 | 0.00 | 0.02 | 0.00 | 97 | 1013.3 |
| 20260905054539 | 77 | 339 | 0.0 | 0.0 | 0.00 | 0.02 | 0.00 | 97 | 1013.5 |
| 20260905053042 | 77 | 339 | 0.0 | 0.0 | 0.00 | 0.02 | 0.00 | 96 | 1013.5 |
| 20260905051543 | 77 | 339 | 0.0 | 0.0 | 0.00 | 0.02 | 0.00 | 96 | 1013.5 |
| 20260905050035 | 77 | 339 | 0.0 | 0.0 | 0.00 | 0.02 | 0.00 | 96 | 1013.5 |
| 20260905044514 | 78 | 339 | 0.0 | 0.0 | 0.00 | 0.02 | 0.00 | 96 | 1013.7 |
| 20260905043013 | 78 | 339 | 0.0 | 0.0 | 0.00 | 0.02 | 0.00 | 96 | 1013.8 |
| 20260905041600 | 78 | 339 | 0.0 | 0.0 | 0.00 | 0.02 | 0.00 | 96 | 1013.7 |
| 20260905034535 | 79 | 339 | 0.0 | 0.0 | 0.00 | 0.02 | 0.02 | 95 | 1013.9 |
| 20260905033105 | 79 | 339 | 0.0 | 0.0 | 0.00 | 0.02 | 0.02 | 95 | 1013.9 |
| 20260905031518 | 79 | 339 | 0.0 | 0.0 | 0.00 | 0.02 | 0.02 | 95 | 1013.7 |
| 20260905030017 | 79 | 339 | 0.0 | 0.0 | 0.00 | 0.02 | 0.02 | 95 | 1013.6 |
| 20260905024601 | 80 | 339 | 0.0 | 0.0 | 0.00 | 0.02 | 0.02 | 95 | 1013.4 |
| 20260905023125 | 80 | 339 | 0.0 | 0.0 | 0.00 | 0.02 | 0.02 | 95 | 1013.4 |
| 20260905021549 | 81 | 339 | 0.0 | 0.0 | 0.00 | 0.02 | 0.02 | 94 | 1013.1 |
| 20260905020048 | 81 | 339 | 0.0 | 0.0 | 0.00 | 0.02 | 0.02 | 94 | 1013.0 |
| 20260905014551 | 82 | 339 | 0.0 | 0.0 | 0.00 | 0.02 | 0.02 | 93 | 1013.2 |
| 20260905013047 | 82 | 339 | 0.0 | 0.0 | 0.00 | 0.02 | 0.02 | 92 | 1013.1 |
| 20260905011548 | 83 | 339 | 0.0 | 0.0 | 0.01 | 0.02 | 0.02 | 91 | 1013.0 |
| 20260905004546 | 84 | 339 | 0.0 | 0.0 | 0.01 | 0.02 | 0.02 | 88 | 1012.7 |
| 20260905003045 | 85 | 339 | 0.0 | 0.0 | 0.01 | 0.02 | 0.02 | 87 | 1012.5 |
| 20260905001526 | 87 | 339 | 0.0 | 0.0 | 0.00 | 0.01 | 0.01 | 86 | 1012.4 |
| 20260905000027 | 88 | 339 | 0.0 | 0.0 | 0.00 | 0.01 | 0.01 | 82 | 1012.3 |
| 20260904234509 | 90 | 339 | 0.0 | 0.0 | 0.00 | 0.01 | 0.01 | 80 | 1012.3 |
| 20260904233009 | 91 | 339 | 0.0 | 0.0 | 0.00 | 0.01 | 0.01 | 77 | 1012.3 |
| 20260904231607 | 93 | 339 | 0.0 | 0.0 | 0.00 | 0.01 | 0.01 | 72 | 1012.5 |
| 20260904230107 | 95 | 339 | 0.0 | 0.0 | 0.00 | 0.01 | 0.01 | 70 | 1012.4 |
| 20260904224549 | 96 | 339 | 0.0 | 0.0 | 0.00 | 0.02 | 0.01 | 66 | 1012.5 |
| 20260904223032 | 96 | 339 | 0.0 | 0.0 | 0.00 | 0.02 | 0.01 | 62 | 1012.5 |
| 20260904221531 | 95 | 339 | 0.0 | 0.0 | 0.00 | 0.02 | 0.01 | 63 | 1012.5 |
| 20260904220020 | 95 | 339 | 0.0 | 0.0 | 0.00 | 0.02 | 0.01 | 70 | 1012.6 |
| 20260904214519 | 96 | 339 | 0.0 | 0.0 | 0.00 | 0.02 | 0.01 | 62 | 1012.6 |
| 20260904213027 | 97 | 339 | 0.0 | 2.0 | 0.00 | 0.02 | 0.01 | 62 | 1012.6 |
| 20260904211516 | 96 | 243 | 0.0 | 0.0 | 0.00 | 0.02 | 0.01 | 60 | 1012.7 |
| 20260904210013 | 95 | 242 | 0.0 | 3.0 | 0.00 | 0.02 | 0.01 | 61 | 1012.8 |
| 20260904204521 | 95 | 276 | 0.0 | 2.0 | 0.00 | 0.02 | 0.01 | 63 | 1013.0 |
| 20260904203016 | 95 | 237 | 0.0 | 3.0 | 0.00 | 0.02 | 0.01 | 63 | 1013.1 |
| 20260904201510 | 95 | 296 | 0.0 | 2.0 | 0.00 | 0.02 | 0.01 | 65 | 1013.3 |
| 20260904200008 | 94 | 140 | 0.0 | 3.0 | 0.00 | 0.02 | 0.01 | 60 | 1013.4 |
| 20260904194507 | 94 | 71 | 0.0 | 2.0 | 0.00 | 0.02 | 0.01 | 62 | 1013.7 |
| 20260904193046 | 93 | 245 | 1.0 | 4.0 | 0.00 | 0.02 | 0.01 | 65 | 1013.8 |
| 20260904191543 | 92 | 178 | 0.0 | 3.0 | 0.00 | 0.02 | 0.01 | 65 | 1014.0 |
| 20260904190023 | 91 | 360 | 2.0 | 5.0 | 0.00 | 0.02 | 0.01 | 68 | 1014.1 |
| 20260904184522 | 90 | 136 | 2.0 | 7.0 | 0.01 | 0.02 | 0.01 | 69 | 1014.3 |
| 20260904183004 | 90 | 116 | 1.0 | 5.0 | 0.01 | 0.02 | 0.01 | 70 | 1014.4 |
| 20260904181504 | 90 | 76 | 1.0 | 3.0 | 0.01 | 0.02 | 0.01 | 67 | 1014.6 |
| 20260904180045 | 90 | 59 | 3.0 | 7.0 | 0.01 | 0.02 | 0.01 | 70 | 1014.8 |
| 20260904174544 | 91 | 15 | 2.0 | 7.0 | 0.00 | 0.01 | 0.00 | 70 | 1014.9 |
| 20260904173026 | 91 | 42 | 0.0 | 6.0 | 0.00 | 0.01 | 0.00 | 69 | 1015.1 |
| 20260904171525 | 90 | 9 | 0.0 | 3.0 | 0.00 | 0.01 | 0.00 | 69 | 1015.0 |
| 20260904170005 | 90 | 229 | 0.0 | 5.0 | 0.00 | 0.01 | 0.00 | 70 | 1015.1 |
| 20260904164505 | 90 | 330 | 0.0 | 6.0 | 0.00 | 0.01 | 0.00 | 71 | 1015.0 |
| 20260904163043 | 89 | 40 | 1.0 | 5.0 | 0.00 | 0.01 | 0.00 | 72 | 1015.0 |
| 20260904161547 | 88 | 36 | 0.0 | 5.0 | 0.00 | 0.01 | 0.00 | 72 | 1015.0 |
| 20260904160024 | 88 | 227 | 1.0 | 4.0 | 0.00 | 0.01 | 0.00 | 72 | 1014.9 |
| 20260904154521 | 87 | 302 | 0.0 | 4.0 | 0.00 | 0.01 | 0.00 | 73 | 1014.9 |
| 20260904153111 | 87 | 281 | 1.0 | 4.0 | 0.00 | 0.01 | 0.00 | 74 | 1014.8 |
| 20260904151557 | 86 | 290 | 0.0 | 5.0 | 0.00 | 0.01 | 0.00 | 77 | 1014.8 |
| 20260904150047 | 85 | 186 | 1.0 | 4.0 | 0.00 | 0.01 | 0.00 | 77 | 1014.7 |
| 20260904144541 | 84 | 22 | 0.0 | 4.0 | 0.00 | 0.02 | 0.00 | 79 | 1014.7 |
| 20260904143038 | 84 | 324 | 0.0 | 6.0 | 0.00 | 0.02 | 0.00 | 79 | 1014.6 |
| 20260904141537 | 83 | 14 | 0.0 | 1.0 | 0.00 | 0.02 | 0.00 | 80 | 1014.4 |
| 20260904140034 | 82 | 355 | 0.0 | 1.0 | 0.00 | 0.02 | 0.00 | 81 | 1014.2 |
| 20260904134535 | 82 | 267 | 0.0 | 0.0 | 0.00 | 0.02 | 0.00 | 82 | 1014.2 |
| 20260904133026 | 82 | 268 | 0.0 | 0.0 | 0.00 | 0.02 | 0.00 | 84 | 1014.2 |
| 20260904131537 | 81 | 198 | 0.0 | 0.0 | 0.00 | 0.02 | 0.00 | 86 | 1014.1 |
| 20260904130005 | 78 | 205 | 0.0 | 0.0 | 0.00 | 0.02 | 0.00 | 90 | 1014.0 |
| 20260904124559 | 76 | 200 | 0.0 | 0.0 | 0.00 | 0.02 | 0.00 | 93 | 1013.9 |
| 20260904123042 | 74 | 189 | 0.0 | 0.0 | 0.00 | 0.02 | 0.00 | 96 | 1013.8 |
| 20260904121541 | 73 | 189 | 0.0 | 0.0 | 0.00 | 0.02 | 0.00 | 97 | 1013.6 |
| 20260904120029 | 72 | 180 | 0.0 | 0.0 | 0.00 | 0.02 | 0.00 | 97 | 1013.6 |
| 20260904114529 | 72 | 180 | 0.0 | 0.0 | 0.00 | 0.02 | 0.00 | 97 | 1013.4 |
| 20260904113039 | 72 | 180 | 0.0 | 0.0 | 0.00 | 0.02 | 0.00 | 97 | 1013.3 |
| 20260904111535 | 72 | 180 | 0.0 | 0.0 | 0.00 | 0.02 | 0.00 | 97 | 1013.3 |
| 20260904110027 | 73 | 180 | 0.0 | 0.0 | 0.00 | 0.02 | 0.00 | 97 | 1013.3 |
| 20260904104527 | 73 | 180 | 0.0 | 0.0 | 0.00 | 0.02 | 0.00 | 97 | 1013.4 |
| 20260904103025 | 73 | 180 | 0.0 | 0.0 | 0.00 | 0.02 | 0.00 | 96 | 1013.5 |
| 20260904101524 | 73 | 180 | 0.0 | 0.0 | 0.00 | 0.02 | 0.00 | 96 | 1013.7 |
| 20260904100006 | 73 | 180 | 0.0 | 0.0 | 0.00 | 0.02 | 0.00 | 96 | 1013.7 |
| 20260904094514 | 73 | 180 | 0.0 | 0.0 | 0.00 | 0.02 | 0.00 | 96 | 1013.7 |
| 20260904093047 | 73 | 180 | 0.0 | 0.0 | 0.00 | 0.02 | 0.00 | 96 | 1013.8 |
| 20260904091559 | 73 | 180 | 0.0 | 0.0 | 0.00 | 0.02 | 0.00 | 96 | 1013.8 |
| 20260904090035 | 73 | 180 | 0.0 | 0.0 | 0.00 | 0.02 | 0.00 | 96 | 1013.7 |
| 20260904084538 | 74 | 180 | 0.0 | 0.0 | 0.00 | 0.02 | 0.00 | 96 | 1013.6 |
| 20260904083040 | 74 | 180 | 0.0 | 0.0 | 0.00 | 0.02 | 0.00 | 96 | 1013.3 |